Regional Weather Roundup
Issued by NWS Green Bay, WI

Home | Current Version | Previous Version | Text Only | Print | Product List | Glossary On
Versions: 1 2 3 4 5 6 7 8 9 10 11 12 13 14 15 16 17 18 19 20 21 22 23 24 25 26 27 28 29 30 31 32 33 34 35 36 37 38 39 40 41 42 43 44 45 46 47 48 49 50
000
ASUS43 KGRB 201010
RWRGRB

NORTH-CENTRAL AND NORTHEAST WISCONSIN REGIONAL WEATHER ROUNDUP
NATIONAL WEATHER SERVICE GREEN BAY WI
500 AM CDT MON OCT 20 2014

WIZ005-009-010>012-018-019-201100-
NORTH CENTRAL WISCONSIN

CITY           SKY/WX    TMP DP  RH WIND       PRES   REMARKS
IRONWOOD       CLOUDY    46  43  87 NW5       29.81R
MANITOWISH WTR CLOUDY    46  43  91 N6        29.82R
ARBOR VITAE    CLOUDY    47  43  87 NW7       29.81R
EAGLE RIVER    CLOUDY    46  44  94 NW5       29.80R
LAND O LAKES   CLOUDY    46  42  86 N8        29.81R
RHINELANDER    CLOUDY    46  42  86 NW7       29.81R
PHILLIPS         N/A     37  37 100 CALM      29.83R FOG
ANTIGO         CLEAR     32  32  99 CALM      29.80R FOG
TOMAHAWK       CLEAR     37  36  95 CALM      29.83R FOG
MERRILL        PTCLDY    37  37 100 CALM      29.82R
$$

WIZ013-073-201100-
NORTHEAST WISCONSIN

CITY           SKY/WX    TMP DP  RH WIND       PRES   REMARKS
IRON MOUNTAIN  CLOUDY    43  42  97 CALM      29.76R
MARINETTE      MOCLDY    45  41  87 NW5       29.75R
OCONTO         PTCLDY    40  40 100 NW3       29.76R
$$

WIZ017-030-035>037-045-201100-
CENTRAL WISCONSIN

CITY           SKY/WX    TMP DP  RH WIND       PRES   REMARKS
MEDFORD        CLEAR     41  39  94 NW6       29.84R
WAUSAU         CLEAR     43  41  93 NW6       29.80R
MOSINEE        CLEAR     41  41 100 NW8       29.82R
MARSHFIELD     CLEAR     46  42  86 NW9       29.83R
WISC RAPIDS    CLEAR     46  42  86 N8        29.82R
STEVENS POINT  CLEAR     42  40  94 NW5       29.81R
WAUPACA        CLEAR     40  39  96 NW3       29.78R
SHAWANO        CLEAR     40  38  94 CALM      29.78R
CLINTONVILLE   PTCLDY    37  37 100 NW5       29.77R
$$

WIZ038-039-048-051-201100-
FOX VALLEY

CITY           SKY/WX    TMP DP  RH WIND       PRES   REMARKS
NWS GREEN BAY  CLEAR     40  39  97 SW3       29.76S
APPLETON       CLEAR     43  41  93 W3        29.77S
OSHKOSH        CLEAR     46  42  86 W3        29.76S
FOND DU LAC    CLEAR     44  40  85 SW5       29.77S
$$

WIZ022-050-052-201100-
EAST CENTRAL WISCONSIN

CITY           SKY/WX    TMP DP  RH WIND       PRES   REMARKS
STURGEON BAY   CLEAR     46  43  87 W6        29.75S
MANITOWOC      CLEAR     48  44  86 W7        29.76S
SHEBOYGAN      CLEAR     48  42  80 W10       29.76S
$$

LMZ563-521-522-541>543-201100-
LAKESHORE

STATION/POSITION TIME  TEMP    WIND        PRES    VSBY  WAVE
                       AIR SEA DIR/SP/G                  HT/PER
                 (UTC) (F)     (DEG/KT/KT) (MB)    (MI)  (FT/S)
SHEBOYGAN LKSHOR 1000   50 51  270/ 10/ 12 1007.9S
KEWAUNEE LKSHORE 1000   47     290/  6/  9 1006.5R
NORTHPORT PIER   1000   50     300/  5/  6 1007.1S
N MID LAKE BUOY  1000   52 52  310/ 10/ 12 1006.6F         4/ 7
CHAMBERS ISLAND  1000   49     280/  3/  6 1007.5R
MENOMINEE LKSHOR 1000   47     290/  3/  5 1008.1R
$$


USA.gov is the U.S. government's official web portal to all federal, state and local government web resources and services.